Location: Chochol
(49.7771°N, 14.9780°E)
Time: 11:10:24
(UTC+00:00)

STARLINK-1270 - Pass Details

Date: 09 April 2020
Orbit: 378 x 381 km, 53.0° (Epoch: 26 May)

Event Time Altitude Azimuth Distance (km) Brightness Sun altitude
Rises 18:14:02 0° 292° (WNW) 2,263 9.7 -5.4°
Reaches altitude 10° 18:16:06 10° 292° (WNW) 1,407 7.6 -5.7°
Maximum altitude 18:19:15 89° 22° (NNE) 388 2.9 -6.2°
Drops below altitude 10° 18:22:23 10° 113° (ESE) 1,399 5.0 -6.6°
Enters shadow 18:22:34 - 113° (ESE) 1,477 5.1 -6.7°
